一网星座-0129星 (ONEWEB-0129 )

导读

ONEWEB-0129是英国OneWeb星座的低轨通信卫星,于2020年12月18日发射入轨。卫星重约150kg,先期进入450km极地轨道,后通过氙离子电推进爬升至1200km工作轨道。它属于OneWeb一期全球卫星互联网组网的组成部分,为航空、海运、偏远地区提供高速低延迟宽带服务,助力缩小全球数字鸿沟。

Basic Information
目录编号:
47275
目录名称:
ONEWEB-0129
国际标识:
2020-100T
轨道中心:
EARTH
卫星名称:
一网星座-0129星
卫星全名:
一网星座-0129星 (ONEWEB-0129 )
卫星状态:
在轨 (已飞行2003 天)
发射日期:
2020-12-18 UTC
国别 :
英国 (GB)
星等 :
--
Orbit Information
数据来源 国际轨道数据 AOE轨道数据
星历时间 2026-06-13T03:36:50+0800
5小时前
查看轨道信息
2026-06-10T00:00:00+0800
3天前
查看轨道信息
半长轴 7591.861km 7591.874km
偏心率 0.00022 0.0001748
轨道倾角 87.895° 87.894°
近地点辐角 120.400° 117.982°
升交点赤经 351.526° 352.151°
平近点角 239.735° 124.790°
近地点 1212.053km 1212.409km
远地点 1215.395km 1215.065km
周期 109.719分钟 109.719分钟
每日圈数 13.12443 13.124397
Detailed Information
平衡模式:
三轴稳定
覆盖范围:
全球
运营商:
一网卫星公司
运营商所在国:
英国
制造商(研发单位):
一网卫星公司
制造商所在国:
英国
使用方式:
暂无
Satellite Introduction
OneWeb卫星网络由648颗重约125公斤的微型卫星组成,运行在1200公里的轨道上。 每颗卫星都能够提供至少每秒8千兆位的吞吐量,以使用其高吞吐量的Ku频段有效载荷为家庭和移动平台提供互联网接入。该卫星仍在工作。
2D Orbit Map
3D Orbit Map
Orbit Altitude Analysis Chart
Orbit Inclination Analysis Chart
Orbit Comprehensive Analysis Chart
View Comprehensive Chart